Погода в Николаевке

Украина / Днепропетровская область     48°32′41″N   34°42′15″E
темп.,
°C
ветер,
м/с
пор.,
м/с
влажн.,
%
обл.,
%
осадки,
мм/ч
давл.,
гПа
погр.,
м
15 мая, сб
сб1500:00+13юз410805 0.0 1011223
03:00+12ююз39801 0.0 1011161
06:00+12ююз49805 0.0 1012193
09:00+18ююз466212 0.0 1013472
12:00+22ююз68476 0.0 10132001
15:00+24юз674211 0.0 10122328
18:00+23ююз464813 0.0 10121103
21:00+17ю3566100 0.0 101372
16 мая, вс
вс1600:00+15з22691 0.0 101320
03:00+14зсз01720 0.0 101311
06:00+15всв227338 0.0 101318
09:00+20всв3457100 0.0 1013434
12:00+24всв4546100 0.0 10121564
15:00+26всв554183 0.0 10101892
18:00+25св57528 0.0 1008856
21:00+19ссв51278100 0.9 1007299
17 мая, пн
пн1700:00+18ссв2489100 2.5 100671
03:00+17в2383100 2.6 100653
06:00+16всв3786100 0.0 1002163
09:00+21юв5869100 0.0 1003476
12:00+22ююв676651 0.4 1003907
15:00+24ю81062100 0.5 10031386
18:00+22ю7107275 0.1 10031041
21:00+17ююз511826 0.2 1006502
18 мая, вт
вт1800:00+14юз411887 0.0 1007392
03:00+13ююз38925 0.1 1008212
06:00+13ю49925 0.1 1008264
09:00+18ю577260 0.1 1008850
12:00+22ю67574 0.2 10081601
15:00+23ю6850100 0.6 10072099
18:00+19ю61077100 2.6 1006707
21:00+16юз6128562 5.4 1007450
19 мая, ср
ср1900:00+13з4109624 0.1 1009394
03:00+12з510921 0.1 1011369
06:00+11з389299 0.0 1012260
09:00+16зюз3471100 0.0 1013583
12:00+20зюз4551100 0.0 10131481
15:00+20ююз4350100 0.0 10121413
18:00+18ю4565100 0.1 1012298
21:00+15всв2474100 0.4 1011112